Flag for U.S.A. Weather past 2 weeks in Medford, Oregon, U.S.A.

Now
56 °F

Sunny.


Feels Like: 56 °F
Forecast: 45 / 68 °F
Wind: 3 mph from North

Location: Rogue Valley International Airport

Current Time: Mar 30, 2015 at 11:33:55 AM

Latest Report: Mar 30, 2015 at 10:53 AM


Visibility: 10 mi

Pressure: 30.08 "Hg

Humidity: 62%

Dew point: 43 °F

Location of MedfordLocation

Historic Weather in Medford — Graph

°F

Medford temperature yesterday

Maximum temperature yesterday: 74 °F (at 4:53 PM)
Minimum temperature yesterday: 38 °F (at 6:53 AM)
Average temperature yesterday: 55 °F

Past Weeks' High & Low Weather Summary

 TemperatureHumidityPressure
High80 °F (Mar 26, 4:53 PM)100% (Mar 21, 8:53 AM)30.42 "Hg (Mar 21, 8:53 AM)
Low38 °F (Mar 29, 6:53 AM)20% (Mar 28, 6:53 PM)29.86 "Hg (Mar 15, 10:57 AM)
Average53 °F70%30.15 "Hg
* Reported Mar 15 9:53 AM — Mar 30 9:53 AM, Medford, Weather by CustomWeather, © 2015

Note: Actual official high and low records may vary slightly from our data, if they occured in-between our weather recording intervals... More about our weather records

Advertising

Medford weather history for previous 24 hours

 ConditionsComfort  
Time TempWeatherWind HumidityBarometerVisibility
9:53 AM
Mon, Mar 30
53 °FSunny.No wind66%30.10 "Hg10 mi
8:53 AM50 °FSunny.No wind68%30.11 "Hg10 mi
7:53 AM45 °FClear.No wind80%30.11 "Hg10 mi
6:53 AM44 °FPassing clouds.3 mph82%30.11 "Hg10 mi
5:53 AM44 °FClear.No wind82%30.10 "Hg10 mi
4:53 AM48 °FClear.No wind74%30.10 "Hg10 mi
3:53 AM47 °FClear.No wind77%30.11 "Hg10 mi
2:53 AM50 °FClear.No wind71%30.13 "Hg10 mi
1:53 AM50 °FClear.5 mph71%30.14 "Hg10 mi
12:53 AM51 °FClear.No wind69%30.14 "Hg10 mi
11:53 PM
Sun, Mar 29
53 °FClear.3 mph64%30.14 "Hg10 mi
10:53 PM57 °FClear.3 mph58%30.14 "Hg10 mi
9:53 PM60 °FClear.3 mph47%30.14 "Hg10 mi
8:53 PM62 °FClear.No wind48%30.13 "Hg10 mi
7:53 PM66 °FSunny.5 mph40%30.11 "Hg10 mi
6:53 PM72 °FSunny.No wind27%30.11 "Hg10 mi
5:53 PM73 °FSunny.3 mph27%30.11 "Hg10 mi
4:53 PM74 °FSunny.5 mph24%30.12 "Hg10 mi
3:53 PM71 °FSunny.3 mph20%30.14 "Hg10 mi
2:53 PM70 °FSunny.3 mph29%30.16 "Hg10 mi
1:53 PM66 °FSunny.3 mph37%30.20 "Hg10 mi
12:53 PM63 °FSunny.3 mph41%30.23 "Hg10 mi
11:53 AM58 °FSunny.No wind46%30.26 "Hg10 mi
Weather by CustomWeather, © 2015

See weather overviewHow to use our weather pages